Back to catalog

STARLINK-32617

AliveCommunicationsVLEO
NORAD 62076·PAYLOAD·🇺🇸 United States

Launched Nov 24, 2024 from Vandenberg Space Force Base

Loading…

Next Passes (next 24 hours)

TLE

FreshSource: CelesTrak SupGP

Epoch: Sep 15, 2026, 02:04 UTC

1 62076C 24217V   26258.08659722  .00020658  00000+0  61045-3 0  2586
2 62076  53.1608  18.7007 0001274  94.7278  15.5244 15.34374619    15

Track STARLINK-32617 in real time with AllMySat

Download on the App Store